Location: Taaricht
(32.5378°N, 5.4251°W)
Time: 19:29:37
(UTC+00:00)

SL-08 RB Rocket - Pass Details

Date: 09 April 2020
Orbit: 646 x 685 km, 97.8° (Epoch: 27 May)

Event Time Altitude Azimuth Distance (km) Brightness Sun altitude
Exits shadow 20:34:26 36° 181° (S) 1,056 4.5 -22.2°
Maximum altitude 20:36:16 74° 258° (WSW) 695 3.8 -22.6°
Drops below altitude 10° 20:40:52 10° 344° (NNW) 2,105 6.8 -23.4°
Sets 20:43:08 0° 346° (NNW) 3,029 7.7 -23.8°
